Regional Weather Roundup
Issued by NWS

Home | Current Version | Previous Version | Graphics & Text | Print | Product List | Glossary On
Versions: 1 2 3 4 5 6 7 8 9 10 11 12 13 14 15 16 17 18 19 20 21 22 23 24 25 26 27 28 29 30 31 32 33 34 35 36 37 38 39 40 41 42 43 44 45 46 47 48 49 50
000
ASUS43 KIND 262309
RWRIN

WEATHER ROUNDUP FOR INDIANA
NATIONAL WEATHER SERVICE INDIANAPOLIS IN
600 PM EST MON JAN 26 2015

NOTE: "FAIR" INDICATES FEW OR NO CLOUDS BELOW 12,000 FEET WITH NO
SIGNIFICANT WEATHER AND/OR OBSTRUCTIONS TO VISIBILITY.

* - STATION DOES NOT REPORT WEATHER SUCH AS PRECIPITATION OR FOG.

+ - STATION NOT QUALITY CONTROLLED BY THE NATIONAL WEATHER SERVICE.
    USE DATA WITH CAUTION...ESPECIALLY DEWPOINT AND RELATIVE
    HUMIDITY OBSERVATIONS.

INZ001>003-010>013-019-020-270000-
NORTHWEST INDIANA

CITY           SKY/WX    TMP DP  RH WIND       PRES   REMARKS
GARY /AIRPORT/ CLOUDY    28  18  64 SE5       29.89R WCI  23
KNOX *+        PTCLDY    22   3  44 S5        29.90R WCI  16
LA PORTE +     PTCLDY    24  18  77 CALM      29.90R
MICHIGAN CITY+ PTCLDY    23  12  63 CALM      29.91R
MONTICELLO +   CLOUDY    24  20  85 E3        29.90S
RENSSELAER +   CLOUDY    28  27  93 S5        29.90R WCI  23
VALPARAISO     MOCLDY    23  17  78 SE6       29.89R WCI  16

$$

LMZ046-743>745-270000-
SOUTHERN LAKE MICHIGAN

STATION/POSITION TIME  TEMP WIND        PRES
                       AIR  DIR/SP/G
                 (UTC) (F)  (DEG/KT/KT) (MB)
MICHIGAN CITY    2300   24  150/  8/ 10   N/A

$$

INZ004-005-014>016-021>024-270000-
NORTH CENTRAL INDIANA

CITY           SKY/WX    TMP DP  RH WIND       PRES   REMARKS
ELKHART        CLOUDY    23   9  54 SE6       29.90  WCI  16
GOSHEN         CLOUDY    22  10  60 SE3       29.90F
LOGANSPORT +   PTCLDY    19  14  79 E5        29.91S WCI  13
PERU/GRISSOM   FRZ DRZL  19  12  73 SE5       29.90F WCI  13
ROCHESTER +    MOCLDY    25  16  68 CALM      29.91S
SOUTH BEND     MOCLDY    24  15  68 S6        29.89F WCI  17
WARSAW +       MOCLDY    23  14  68 CALM      29.90F

$$

INZ006>009-017-018-025>027-270000-
NORTHEAST INDIANA

CITY           SKY/WX    TMP DP  RH WIND       PRES   REMARKS
ANGOLA *+      CLEAR     21   7  53 CALM      29.89F
AUBURN +       PTCLDY    21   7  53 CALM      29.92S
FORT WAYNE     MOCLDY    20  11  68 SW5       29.92S WCI  13
HUNTINGTON +   MOCLDY    21   8  58 SE3       29.91F

$$

INZ028-029-035-036-043>045-051>053-270000-
WEST CENTRAL INDIANA

CITY           SKY/WX    TMP DP  RH WIND       PRES   REMARKS
CRAWFORDSVL +  CLOUDY    27  18  69 S5        29.90S WCI  21
GREENCASTLE +  CLOUDY    28  19  69 CALM      29.91R
LAFAYETTE      CLOUDY    27  20  75 S3        29.91R
TERRE HAUTE    FLURRIES  28  23  81 W7        29.93R WCI  21

$$

INZ030>032-037>040-046>048-054>057-064-065-270000-
CENTRAL INDIANA

CITY           SKY/WX    TMP DP  RH WIND       PRES   REMARKS
CP ATTERBURY + CLOUDY    30  23  74 CALM      29.92R
COLUMBUS       CLOUDY    28  21  74 MISG      29.93R
INDIANAPOLIS   CLOUDY    25  19  78 CALM      29.90R
-EAGLE CREEK   CLOUDY    27  20  75 CALM      29.90R
KOKOMO *+      PTCLDY    21  12  68 E5        29.91F WCI  15
MARION +       PTCLDY    20  12  71 CALM      29.92S
MT COMFORT *+  CLOUDY    28  14  54 W3        29.91R
SHELBYVILLE    CLOUDY    28  18  66 CALM      29.91R
ZIONSVILLE +   CLOUDY    27  19  72 CALM      29.90F

$$

INZ033-034-041-042-049-050-058-059-270000-
EAST CENTRAL INDIANA

CITY           SKY/WX    TMP DP  RH WIND       PRES   REMARKS
MUNCIE         PTCLDY    21  13  71 NE5       29.91S WCI  15

$$

INZ060-061-067>069-081>083-085>088-270000-
SOUTHWEST INDIANA

CITY           SKY/WX    TMP DP  RH WIND       PRES   REMARKS
EVANSVILLE     LGT SNOW  30  26  85 SW3       29.95S FOG
HUNTINGBURG *+ CLOUDY    28  23  80 W6        29.95R WCI  22
WASHINGTON +   LGT SNOW  28  24  85 W6        29.94R WCI  21

$$

INZ062-063-066-070>080-084-089>092-270000-
SOUTH CENTRAL AND SOUTHEAST INDIANA

CITY           SKY/WX    TMP DP  RH WIND       PRES   REMARKS
BLOOMINGTON    CLOUDY    29  23  78 W5        29.91R WCI  24
SEYMOUR +      CLOUDY    32  23  69 W3        29.93S

$$




USA.gov is the U.S. government's official web portal to all federal, state and local government web resources and services.